Wind_Speed
3 3 6 8 8 9 9 10 12 13 15 16 20 24 21 19 19 18 17 17 17 18 19 21 23 25 27 30 32 34 35 37 38 39 40 40 40 40 41 41 40 39 40 40
6 11 7 3 6 10 9 11 14 18 20 17 17 18 16 13 13 13 13 14 15 17 18 21 23 25 27 29 31 32 34 36 38 39 40 40 41 41 42 42 41 41 41 42
12 10 5 4 7 9 10 14 15 17 17 14 13 14 12 10 9 10 13 15 17 18 20 23 25 26 28 30 32 34 35 36 38 40 41 41 41 41 42 42 42 41 41 42
5 7 9 7 8 9 12 13 14 14 15 16 15 16 11 10 10 12 15 17 19 20 22 24 26 28 30 32 34 35 35 36 38 39 40 40 40 41 41 42 42 42 42 42
3 5 7 7 7 8 10 12 12 15 19 21 22 22 14 12 12 14 18 20 21 22 24 26 27 29 31 33 34 36 36 37 38 39 40 41 41 41 42 42 42 41 40 40
2 3 5 5 6 7 8 11 14 18 21 21 17 15 10 13 19 20 21 22 23 24 26 27 28 29 31 33 34 36 37 38 39 39 40 41 41 41 41 41 40 39 38 38
3 2 3 5 7 8 8 10 15 20 23 20 13 11 10 15 22 23 24 25 25 26 28 29 30 31 32 34 35 36 37 38 39 40 40 41 41 41 41 40 39 39 38 38
10 7 7 8 9 9 8 10 15 18 21 23 17 11 14 18 20 21 23 24 26 27 29 30 31 32 34 35 36 37 37 38 39 40 41 41 41 41 40 40 39 39 39 39
9 8 10 12 10 9 7 8 11 13 13 16 18 18 18 20 21 22 23 25 26 28 29 31 32 34 35 37 37 38 38 39 39 40 40 41 41 41 40 40 40 40 40 41
8 7 8 13 10 9 10 9 9 6 8 10 14 20 20 22 23 23 24 26 28 29 30 31 33 35 36 38 39 39 40 39 39 40 40 41 41 40 40 40 41 41 42 42
8 6 5 8 10 10 10 9 9 6 6 6 11 21 22 23 23 23 25 27 28 30 31 32 34 35 37 39 40 41 41 41 40 41 41 41 41 40 40 40 40 41 42 44
8 5 3 6 8 9 10 11 10 9 8 7 9 22 23 24 23 24 26 27 29 30 31 33 35 37 39 40 41 42 42 42 42 42 42 42 41 40 40 41 41 42 43 45
9 7 5 8 10 9 10 13 12 10 8 9 9 20 25 26 26 27 27 28 30 31 33 35 37 39 40 42 42 43 43 43 43 44 43 42 42 41 41 41 42 44 46 48
10 9 6 7 10 11 11 12 14 13 11 12 14 19 25 25 25 26 27 29 31 33 35 38 40 41 42 43 43 44 44 44 44 44 44 43 42 42 42 42 44 46 48 50
10 9 9 8 10 11 12 13 14 14 14 14 17 20 24 24 25 27 28 30 33 35 38 40 42 43 43 44 44 45 45 45 45 45 44 43 43 42 42 43 44 47 49 50
10 9 10 8 9 11 13 15 16 16 17 18 19 21 24 25 27 28 29 32 34 37 39 41 43 44 44 45 45 45 46 46 46 45 44 44 43 42 42 44 45 47 49 49
12 11 10 9 9 10 13 16 18 19 19 21 22 24 25 25 28 29 30 33 35 38 40 42 44 45 45 46 46 46 46 46 46 45 45 44 43 42 43 44 46 47 48 49
13 12 12 11 9 10 15 18 20 21 21 21 23 25 26 28 31 31 31 34 37 40 42 44 45 45 46 46 46 47 47 47 46 46 45 44 43 43 43 45 46 47 47 47
16 15 15 14 12 11 15 22 21 22 23 21 22 24 25 28 32 35 34 37 40 42 43 44 45 46 46 46 47 47 47 47 47 46 44 44 43 43 44 45 46 46 46 44
19 19 18 17 16 13 16 21 21 24 27 23 24 26 28 29 30 34 36 38 40 42 43 44 44 46 46 47 47 47 48 47 46 45 44 43 43 44 44 45 45 44 43 41
23 22 20 20 19 18 23 23 23 26 27 26 27 28 29 30 31 33 35 38 40 42 43 43 45 46 47 48 48 48 48 47 46 45 44 43 43 44 44 44 43 43 41 39
19 19 21 22 21 22 27 27 27 27 26 26 27 28 29 30 31 34 36 39 41 42 42 43 44 46 48 49 48 48 48 47 46 45 43 42 43 43 43 42 41 40 38 37
19 20 21 21 24 28 29 29 29 28 27 26 27 28 29 30 32 35 37 39 41 42 42 43 44 46 47 49 49 49 48 47 45 44 42 42 42 42 41 40 39 38 37 36
20 25 24 22 22 26 28 29 29 28 27 27 27 28 29 31 33 36 38 39 40 41 42 43 43 45 47 48 49 49 48 46 45 44 42 41 41 41 39 39 39 37 35 35
21 24 26 25 24 26 26 27 28 28 27 27 27 29 30 32 34 37 38 39 40 41 41 42 43 45 47 48 49 49 48 46 44 43 42 40 40 40 38 37 37 36 34 33
23 24 25 25 26 27 27 28 28 27 27 27 28 30 32 34 36 37 39 39 40 40 41 42 43 45 47 49 49 49 48 46 44 43 41 40 39 38 37 36 36 35 33 30
Wind_Direction
63 285 243 220 226 266 294 306 285 272 279 280 288 293 293 290 289 289 289 289 288 288 287 286 285 285 285 285 285 285 286 287 288 289 289 289 289 289 288 287 287 286 285 285
259 254 253 307 302 279 270 275 267 277 281 281 290 294 297 297 298 299 299 298 296 293 291 291 290 289 288 288 288 288 289 290 290 290 290 290 290 289 288 288 287 286 285 284
302 321 329 318 280 272 255 247 259 276 288 287 284 279 288 296 301 310 310 307 304 301 298 298 297 296 296 295 294 294 294 294 295 294 294 293 292 291 290 289 288 287 286 284
287 310 314 293 268 265 274 260 263 279 285 279 281 277 279 309 309 316 319 316 313 310 308 306 305 304 303 302 301 301 300 300 299 298 298 297 296 295 294 292 291 290 288 286
323 300 294 290 286 280 289 294 287 284 281 278 275 270 267 317 322 327 328 324 320 317 315 313 311 310 309 308 308 307 306 305 304 303 302 301 299 298 297 296 294 293 291 289
88 331 313 297 290 292 289 291 291 291 289 287 290 297 300 341 342 336 333 329 327 324 322 320 318 316 314 313 312 311 310 309 308 306 305 304 302 300 299 298 296 294 293 291
42 331 324 328 307 288 290 304 306 314 324 331 332 339 335 348 342 337 332 331 330 328 326 325 324 323 321 319 317 315 313 312 310 308 307 305 303 301 299 297 295 294 292 291
1 4 337 324 312 306 313 314 315 325 332 335 341 343 345 343 337 332 330 329 329 329 328 328 327 326 324 323 321 319 317 314 312 310 308 305 303 300 297 295 293 291 289 287
339 333 326 324 316 311 305 295 300 316 330 340 343 336 332 335 332 331 330 329 329 329 329 328 328 328 326 325 324 321 319 316 313 310 307 305 302 299 295 292 290 288 287 286
324 321 317 330 340 331 326 316 310 313 327 341 336 320 322 325 326 328 329 329 329 330 329 329 329 328 327 325 323 321 319 316 313 311 308 305 302 299 295 291 288 286 286 285
326 325 316 326 330 324 320 320 323 322 306 318 325 308 318 320 324 327 328 329 329 329 329 329 329 328 327 325 323 322 319 317 315 312 310 307 303 300 297 294 291 289 287 286
331 331 296 285 303 329 329 327 328 328 328 337 330 305 314 320 326 329 328 329 329 330 330 330 330 329 328 326 324 322 321 319 317 315 312 309 305 301 298 295 294 292 291 289
327 324 319 320 311 331 339 330 328 324 330 327 317 300 312 319 327 327 327 328 329 331 331 331 330 330 328 327 325 324 322 321 319 317 314 311 307 303 300 297 296 295 294 293
312 310 309 314 314 310 311 315 314 315 311 302 294 295 306 317 323 324 326 327 329 331 332 332 332 330 329 328 326 325 323 322 321 319 317 313 310 306 303 301 300 299 298 297
306 301 296 293 293 298 304 304 305 309 312 310 309 310 314 324 325 327 328 329 331 332 332 332 332 331 330 329 328 326 325 324 323 321 319 316 312 309 306 305 304 304 303 301
310 303 300 297 296 300 310 311 311 313 315 316 317 315 318 325 325 328 330 330 332 332 332 332 332 332 332 331 330 329 327 326 325 324 322 319 316 313 311 310 310 309 308 306
312 313 308 298 292 301 307 305 308 312 315 316 317 317 320 322 323 328 330 329 331 332 333 334 335 335 334 333 332 331 330 329 327 326 324 322 319 317 316 315 314 314 313 310
312 314 312 306 300 304 305 302 307 311 311 314 315 317 322 324 325 329 331 330 333 335 336 337 337 336 336 335 334 333 332 331 330 328 327 324 323 321 320 319 319 318 317 315
311 315 314 311 305 300 297 298 304 309 309 314 314 317 320 325 326 328 333 334 336 337 338 338 338 338 338 337 336 335 334 333 332 330 329 327 326 325 323 323 322 322 321 319
304 309 310 309 309 304 296 293 306 308 307 317 315 319 323 326 327 328 332 333 335 336 336 338 338 339 340 339 339 337 336 335 334 332 331 329 328 328 327 326 326 326 325 324
299 308 311 312 313 307 295 299 304 303 307 313 315 319 321 323 326 329 331 332 334 336 336 338 339 340 341 341 340 339 338 336 335 334 333 332 331 331 330 330 329 330 330 329
294 296 296 298 297 287 290 296 298 300 303 306 310 314 318 322 325 328 331 333 334 336 337 338 339 340 341 341 341 340 339 338 337 336 335 334 334 334 334 333 333 333 333 333
292 291 290 289 286 288 293 297 299 301 303 306 309 314 318 321 325 328 331 333 334 335 336 337 338 340 341 341 342 341 340 340 339 338 337 337 337 337 337 337 337 336 336 337
285 287 295 297 292 289 293 295 298 301 303 306 310 314 317 320 324 327 330 332 333 334 336 337 338 340 341 342 342 342 342 341 340 339 339 338 339 340 340 340 340 339 339 340
288 289 294 298 298 295 296 297 299 301 304 307 311 313 316 319 323 327 330 332 333 334 335 336 338 340 341 342 343 343 342 342 342 340 340 340 341 342 342 342 342 342 342 344
289 290 293 297 298 298 300 300 301 303 305 307 310 313 315 319 323 326 328 330 331 332 333 335 337 339 341 342 342 342 343 343 342 342 341 342 343 344 345 345 344 344 345 347
Height
5868 5868 5867 5868 5870 5871 5871 5872 5868 5867 5867 5867 5866 5865 5863 5861 5860 5859 5858 5857 5857 5856 5855 5854 5852 5851 5849 5847 5844 5841 5839 5836 5832 5829 5826 5823 5820 5817 5813 5811 5809 5807 5805 5803
5869 5866 5865 5866 5870 5872 5873 5873 5868 5868 5868 5867 5864 5861 5859 5858 5857 5856 5855 5855 5854 5853 5851 5849 5847 5845 5842 5840 5837 5834 5831 5828 5824 5820 5817 5814 5811 5808 5804 5801 5799 5798 5796 5793
5866 5866 5866 5868 5871 5871 5871 5870 5868 5867 5866 5864 5861 5858 5856 5855 5855 5854 5853 5852 5850 5849 5847 5844 5842 5839 5835 5832 5829 5826 5823 5819 5815 5811 5807 5804 5801 5798 5794 5791 5789 5787 5785 5783
5868 5867 5867 5868 5869 5868 5867 5867 5866 5864 5862 5858 5855 5853 5852 5851 5851 5851 5850 5849 5847 5844 5842 5839 5836 5832 5829 5825 5821 5817 5814 5811 5806 5802 5797 5794 5790 5787 5784 5781 5778 5776 5774 5772
5868 5868 5868 5868 5867 5867 5866 5865 5863 5862 5859 5856 5851 5847 5844 5847 5846 5847 5846 5845 5842 5840 5837 5833 5830 5826 5822 5818 5813 5809 5805 5801 5797 5793 5788 5784 5780 5776 5773 5770 5767 5765 5762 5760
5865 5867 5867 5867 5866 5866 5865 5865 5863 5860 5856 5852 5848 5844 5841 5844 5844 5843 5842 5841 5838 5835 5832 5828 5824 5820 5816 5811 5806 5801 5797 5792 5787 5783 5779 5774 5770 5766 5763 5759 5756 5754 5752 5750
5864 5865 5866 5866 5866 5865 5864 5864 5861 5857 5852 5848 5846 5843 5841 5843 5843 5842 5840 5837 5834 5831 5827 5823 5818 5814 5809 5804 5799 5794 5789 5784 5779 5774 5769 5765 5761 5757 5753 5750 5747 5745 5743 5741
5865 5865 5865 5865 5865 5863 5863 5863 5860 5856 5854 5849 5845 5842 5842 5844 5844 5842 5839 5836 5832 5828 5823 5818 5814 5809 5803 5798 5792 5787 5781 5776 5771 5766 5761 5756 5752 5748 5744 5741 5738 5736 5733 5731
5867 5867 5866 5865 5863 5862 5862 5861 5860 5858 5857 5853 5848 5845 5844 5844 5842 5840 5837 5833 5829 5825 5820 5815 5809 5804 5798 5792 5786 5780 5774 5769 5764 5758 5753 5748 5743 5739 5735 5732 5729 5726 5724 5721
5868 5867 5867 5865 5863 5861 5861 5859 5858 5857 5855 5855 5853 5847 5846 5843 5841 5838 5835 5831 5826 5821 5816 5811 5805 5799 5793 5786 5780 5774 5768 5762 5756 5750 5745 5739 5734 5729 5725 5721 5718 5716 5713 5710
5867 5867 5866 5865 5864 5861 5860 5859 5856 5855 5854 5853 5853 5849 5844 5841 5839 5836 5832 5827 5823 5818 5812 5807 5800 5794 5787 5780 5773 5767 5760 5754 5747 5741 5735 5729 5724 5719 5714 5710 5707 5704 5701 5698
5866 5866 5864 5864 5862 5860 5859 5857 5856 5855 5853 5852 5852 5849 5843 5839 5836 5833 5829 5824 5819 5814 5808 5802 5795 5788 5781 5774 5766 5759 5752 5745 5738 5731 5725 5718 5713 5708 5703 5699 5695 5691 5688 5685
5866 5865 5864 5862 5861 5859 5859 5857 5855 5854 5852 5851 5851 5848 5840 5836 5833 5829 5825 5820 5815 5809 5803 5796 5789 5782 5774 5767 5759 5751 5743 5736 5728 5721 5714 5708 5702 5697 5692 5687 5683 5678 5674 5670
5864 5864 5863 5863 5861 5859 5858 5857 5855 5852 5851 5849 5848 5844 5839 5834 5831 5826 5821 5816 5810 5804 5797 5790 5783 5775 5767 5759 5751 5743 5735 5727 5719 5712 5704 5698 5691 5685 5680 5675 5670 5665 5659 5653
5863 5862 5861 5860 5860 5858 5857 5855 5853 5850 5848 5846 5844 5840 5835 5831 5827 5822 5817 5811 5805 5798 5791 5784 5776 5768 5760 5751 5743 5734 5725 5717 5710 5702 5694 5687 5681 5674 5668 5663 5656 5650 5643 5636
5860 5860 5859 5858 5857 5856 5855 5852 5850 5847 5845 5842 5840 5836 5831 5827 5822 5818 5812 5806 5800 5793 5786 5778 5769 5760 5752 5743 5734 5725 5717 5709 5700 5692 5685 5677 5670 5663 5657 5650 5643 5636 5628 5620
5859 5858 5857 5855 5854 5853 5853 5850 5847 5845 5842 5839 5836 5833 5827 5823 5818 5814 5808 5802 5795 5788 5779 5771 5762 5753 5744 5735 5726 5717 5708 5700 5692 5683 5675 5667 5660 5653 5645 5638 5630 5621 5613 5604
5857 5856 5854 5853 5852 5850 5851 5846 5844 5841 5838 5835 5831 5827 5823 5818 5812 5808 5803 5796 5789 5781 5772 5763 5755 5746 5737 5727 5718 5709 5700 5692 5683 5675 5666 5658 5650 5643 5634 5626 5617 5608 5599 5589
5854 5853 5851 5850 5848 5847 5846 5842 5840 5837 5834 5831 5827 5823 5819 5814 5807 5801 5797 5789 5782 5774 5765 5757 5748 5739 5730 5721 5712 5702 5693 5684 5675 5667 5658 5649 5641 5633 5624 5615 5606 5597 5587 5577
5851 5849 5848 5846 5844 5843 5842 5838 5836 5834 5828 5826 5822 5818 5814 5809 5805 5798 5790 5784 5776 5768 5760 5752 5743 5733 5724 5715 5705 5696 5686 5677 5668 5659 5650 5641 5633 5624 5615 5606 5596 5586 5576 5566
5847 5845 5843 5842 5840 5839 5835 5833 5832 5829 5825 5821 5816 5812 5808 5804 5799 5794 5786 5779 5771 5763 5754 5746 5737 5727 5718 5709 5699 5689 5680 5670 5661 5652 5643 5634 5625 5616 5607 5597 5587 5578 5568 5559
5845 5843 5841 5839 5837 5836 5829 5828 5826 5823 5819 5815 5812 5808 5803 5799 5793 5787 5780 5773 5765 5757 5749 5740 5731 5722 5712 5703 5693 5684 5674 5664 5655 5646 5637 5628 5618 5609 5599 5590 5580 5571 5561 5552
5841 5839 5836 5835 5833 5828 5825 5822 5819 5816 5813 5810 5806 5802 5798 5793 5787 5781 5774 5767 5759 5752 5743 5735 5726 5717 5707 5698 5688 5678 5668 5658 5649 5640 5631 5622 5612 5603 5593 5584 5574 5565 5556 5547
5836 5832 5830 5828 5827 5823 5819 5816 5813 5810 5807 5804 5800 5796 5792 5787 5781 5775 5769 5761 5754 5746 5738 5730 5721 5712 5703 5693 5683 5673 5663 5653 5644 5635 5625 5616 5607 5598 5588 5579 5570 5561 5552 5544
5830 5827 5824 5822 5819 5816 5814 5810 5807 5804 5801 5798 5794 5790 5786 5781 5775 5769 5763 5756 5748 5741 5733 5725 5716 5707 5698 5688 5678 5668 5658 5648 5639 5630 5621 5612 5603 5593 5584 5575 5566 5557 5549 5541
5823 5821 5819 5816 5814 5810 5807 5804 5801 5798 5796 5792 5789 5784 5779 5774 5769 5763 5756 5750 5743 5735 5727 5719 5711 5702 5693 5683 5673 5663 5653 5644 5635 5626 5617 5608 5599 5590 5581 5572 5563 5554 5547 5539